LHX88F LFBD-EDDM

Flight info

Callsign LHX88F
Flight time 1h 29m
Altitude 33000
Route OBLOC DCT SECHE DCT NARAK/N0444F340 DCT DITEV DCT MEN DCT NINUN DCT LATAM DCT ETREK/N0452F300 DCT LTP DCT SOPLO DCT OMASI DCT KINNI/N0446F360 DCT SOSAL DCT KORED DCT BERSU N871 DITON/N0448F350 DCT NUNRI T103 BETOS BETOS1B
Aircraft A319/M-SDE3FGHIRWY/LB1

Departure

Time 2026-05-07 17:31
Airport Bordeaux–Mérignac Airport (LFBD)

Arrival

Time 2026-05-07 19:00
Airport Munich Airport (EDDM)
Time Latitude Longitude Altitude Speed Heading
2026-05-07 16:59 44.82915 -0.70199 168 ft 0 kts 54°
2026-05-07 17:21 44.82906 -0.70220 167 ft 4 kts 47°
2026-05-07 17:21 44.82891 -0.70240 167 ft 4 kts 29°
2026-05-07 17:21 44.82869 -0.70247 167 ft 4 kts 331°
2026-05-07 17:22 44.82855 -0.70225 167 ft 1 kts 286°
2026-05-07 17:22 44.82853 -0.70218 167 ft 0 kts 286°
2026-05-07 17:25 44.82854 -0.70220 166 ft 1 kts 286°
2026-05-07 17:26 44.82858 -0.70242 166 ft 4 kts 286°
2026-05-07 17:26 44.82868 -0.70290 167 ft 7 kts 286°
2026-05-07 17:26 44.82883 -0.70365 167 ft 9 kts 286°
2026-05-07 17:26 44.82882 -0.70461 167 ft 11 kts 232°
2026-05-07 17:27 44.82865 -0.70571 166 ft 14 kts 286°
2026-05-07 17:27 44.82896 -0.70723 166 ft 18 kts 286°
2026-05-07 17:27 44.82935 -0.70906 165 ft 22 kts 287°
2026-05-07 17:27 44.82881 -0.71063 162 ft 9 kts 226°
2026-05-07 17:28 44.82828 -0.71140 163 ft 13 kts 226°
2026-05-07 17:28 44.82750 -0.71252 162 ft 19 kts 225°
2026-05-07 17:28 44.82647 -0.71397 167 ft 23 kts 225°
2026-05-07 17:28 44.82527 -0.71565 169 ft 25 kts 225°
2026-05-07 17:29 44.82393 -0.71755 166 ft 30 kts 225°
2026-05-07 17:29 44.82237 -0.71973 163 ft 33 kts 225°
2026-05-07 17:29 44.82090 -0.72196 164 ft 30 kts 240°
2026-05-07 17:29 44.82085 -0.72412 163 ft 19 kts 303°
2026-05-07 17:30 44.82183 -0.72498 166 ft 17 kts 21°
2026-05-07 17:30 44.82271 -0.72386 164 ft 18 kts 44°
2026-05-07 17:30 44.82413 -0.72184 163 ft 59 kts 46°
2026-05-07 17:30 44.82865 -0.71533 166 ft 125 kts 45°
2026-05-07 17:31 44.83573 -0.70511 420 ft 149 kts 49°
2026-05-07 17:31 44.84197 -0.69359 1029 ft 150 kts 68°
2026-05-07 17:31 44.84394 -0.67916 1564 ft 158 kts 93°
2026-05-07 17:31 44.84030 -0.66390 2023 ft 174 kts 123°
2026-05-07 17:32 44.83063 -0.65284 2569 ft 187 kts 150°
2026-05-07 17:32 44.81869 -0.64397 3053 ft 204 kts 150°
2026-05-07 17:32 44.80558 -0.63365 3491 ft 226 kts 148°
2026-05-07 17:32 44.79227 -0.62036 4025 ft 246 kts 130°
2026-05-07 17:33 44.78283 -0.59954 4674 ft 259 kts 119°
2026-05-07 17:33 44.77384 -0.57749 5475 ft 267 kts 120°
2026-05-07 17:33 44.76442 -0.55457 6299 ft 275 kts 121°
2026-05-07 17:33 44.75469 -0.53102 7094 ft 282 kts 121°
2026-05-07 17:34 44.74475 -0.50701 7950 ft 286 kts 121°
2026-05-07 17:34 44.73463 -0.48265 8832 ft 288 kts 121°
2026-05-07 17:34 44.72489 -0.45920 9089 ft 267 kts 121°
2026-05-07 17:34 44.71557 -0.43690 9420 ft 273 kts 121°
2026-05-07 17:35 44.70563 -0.41318 9870 ft 290 kts 121°
2026-05-07 17:35 44.69533 -0.38779 10302 ft 311 kts 117°
2026-05-07 17:35 44.68723 -0.35835 10585 ft 336 kts 106°
2026-05-07 17:35 44.68313 -0.32518 11030 ft 352 kts 95°
2026-05-07 17:36 44.68203 -0.29056 11748 ft 357 kts 94°
2026-05-07 17:36 44.68081 -0.25551 12495 ft 361 kts 94°
2026-05-07 17:36 44.67946 -0.22002 13245 ft 366 kts 95°
2026-05-07 17:36 44.67791 -0.18417 13947 ft 370 kts 97°
2026-05-07 17:37 44.67301 -0.14865 14610 ft 372 kts 108°
2026-05-07 17:37 44.66347 -0.11483 15242 ft 374 kts 118°
2026-05-07 17:37 44.65172 -0.08202 15891 ft 378 kts 119°
2026-05-07 17:37 44.63991 -0.04880 16520 ft 382 kts 118°
2026-05-07 17:38 44.62803 -0.01519 17134 ft 387 kts 118°
2026-05-07 17:38 44.61602 0.01884 17751 ft 391 kts 118°
2026-05-07 17:38 44.60389 0.05323 18356 ft 396 kts 118°
2026-05-07 17:38 44.59158 0.08795 18921 ft 399 kts 118°
2026-05-07 17:39 44.57916 0.12287 19504 ft 402 kts 118°
2026-05-07 17:39 44.56661 0.15803 20091 ft 404 kts 119°
2026-05-07 17:39 44.55399 0.19338 20683 ft 407 kts 119°
2026-05-07 17:39 44.54127 0.22897 21246 ft 410 kts 119°
2026-05-07 17:40 44.52847 0.26480 21803 ft 412 kts 119°
2026-05-07 17:40 44.51560 0.30083 22346 ft 415 kts 119°
2026-05-07 17:40 44.50263 0.33711 22884 ft 418 kts 119°
2026-05-07 17:40 44.48957 0.37360 23405 ft 420 kts 119°
2026-05-07 17:41 44.47639 0.41027 23838 ft 423 kts 119°
2026-05-07 17:41 44.46311 0.44716 24262 ft 425 kts 119°
2026-05-07 17:41 44.44981 0.48426 24673 ft 428 kts 118°
2026-05-07 17:41 44.43915 0.52340 25075 ft 434 kts 108°
2026-05-07 17:42 44.43295 0.56498 25484 ft 439 kts 101°
2026-05-07 17:42 44.42840 0.60731 25885 ft 442 kts 101°
2026-05-07 17:42 44.42375 0.64995 26280 ft 444 kts 101°
2026-05-07 17:42 44.41899 0.69274 26656 ft 447 kts 102°
2026-05-07 17:43 44.41412 0.73586 27049 ft 449 kts 102°
2026-05-07 17:43 44.40920 0.77907 27425 ft 452 kts 102°
2026-05-07 17:43 44.40421 0.82260 27804 ft 454 kts 102°
2026-05-07 17:43 44.39920 0.86632 28171 ft 457 kts 102°
2026-05-07 17:44 44.39417 0.91025 28513 ft 459 kts 102°
2026-05-07 17:44 44.38911 0.95442 28864 ft 461 kts 102°
2026-05-07 17:44 44.38411 0.99813 29196 ft 464 kts 102°
2026-05-07 17:44 44.37908 1.04213 29523 ft 466 kts 102°
2026-05-07 17:45 44.37394 1.08697 29868 ft 468 kts 102°
2026-05-07 17:45 44.36876 1.13199 30144 ft 471 kts 102°
2026-05-07 17:45 44.36352 1.17724 30402 ft 473 kts 102°
2026-05-07 17:45 44.35824 1.22254 30771 ft 472 kts 103°
2026-05-07 17:46 44.35293 1.26773 31147 ft 471 kts 103°
2026-05-07 17:46 44.34759 1.31291 31514 ft 471 kts 103°
2026-05-07 17:46 44.34225 1.35804 31889 ft 471 kts 103°
2026-05-07 17:46 44.33690 1.40310 32262 ft 470 kts 103°
2026-05-07 17:47 44.33154 1.44816 32639 ft 470 kts 103°
2026-05-07 17:47 44.32617 1.49320 32900 ft 472 kts 103°
2026-05-07 17:47 44.31514 1.58490 32954 ft 484 kts 103°
2026-05-07 17:48 44.30400 1.67702 32954 ft 480 kts 103°
2026-05-07 17:48 44.30066 1.77024 32957 ft 486 kts 86°
2026-05-07 17:49 44.31449 1.86288 32958 ft 489 kts 78°
2026-05-07 17:49 44.33007 1.95528 32960 ft 490 kts 79°
2026-05-07 17:50 44.34548 2.04797 32961 ft 490 kts 79°
2026-05-07 17:50 44.36077 2.14070 32961 ft 490 kts 79°
2026-05-07 17:51 44.37603 2.23346 32962 ft 490 kts 79°
2026-05-07 17:51 44.39125 2.32630 32952 ft 490 kts 79°
2026-05-07 17:52 44.40638 2.41927 32957 ft 491 kts 79°
2026-05-07 17:52 44.42137 2.51239 32959 ft 491 kts 79°
2026-05-07 17:53 44.43643 2.60557 32960 ft 491 kts 79°
2026-05-07 17:53 44.45141 2.69888 32934 ft 493 kts 79°
2026-05-07 17:54 44.46639 2.79328 33235 ft 499 kts 79°
2026-05-07 17:54 44.47387 2.84072 33553 ft 499 kts 79°
2026-05-07 17:54 44.48331 2.88757 33887 ft 501 kts 70°
2026-05-07 17:55 44.49819 2.93170 34161 ft 502 kts 59°
2026-05-07 17:55 44.51740 2.97259 34451 ft 502 kts 56°
2026-05-07 17:55 44.53699 3.01308 34753 ft 502 kts 56°
2026-05-07 17:55 44.55653 3.05368 34924 ft 503 kts 56°
2026-05-07 17:56 44.59551 3.13522 34963 ft 503 kts 56°
2026-05-07 17:56 44.63291 3.21804 34967 ft 502 kts 60°
2026-05-07 17:57 44.66122 3.28926 34967 ft 502 kts 62°
2026-05-07 17:57 44.69986 3.39036 34967 ft 502 kts 62°
2026-05-07 17:58 44.73373 3.47628 34965 ft 502 kts 61°
2026-05-07 17:58 44.76806 3.56189 34966 ft 502 kts 60°
2026-05-07 17:59 44.80232 3.64761 34965 ft 502 kts 61°
2026-05-07 17:59 44.83630 3.73362 34963 ft 502 kts 61°
2026-05-07 18:00 44.87016 3.81977 34955 ft 503 kts 61°
2026-05-07 18:00 44.90405 3.90605 34956 ft 503 kts 61°
2026-05-07 18:01 44.93791 3.99248 34974 ft 503 kts 61°
2026-05-07 18:01 44.97170 4.07897 34979 ft 503 kts 61°
2026-05-07 18:02 45.02210 4.20874 34975 ft 502 kts 61°
2026-05-07 18:03 45.05001 4.28072 34962 ft 502 kts 61°
2026-05-07 18:03 45.07592 4.34786 34967 ft 503 kts 61°
2026-05-07 18:04 45.10942 4.43471 34982 ft 503 kts 61°
2026-05-07 18:04 45.13694 4.50614 34993 ft 502 kts 61°
2026-05-07 18:05 45.16997 4.59223 34995 ft 502 kts 62°
2026-05-07 18:05 45.20316 4.67919 34981 ft 501 kts 62°
2026-05-07 18:06 45.23625 4.76621 34980 ft 501 kts 62°
2026-05-07 18:06 45.26926 4.85333 34976 ft 501 kts 62°
2026-05-07 18:07 45.30228 4.94051 34995 ft 501 kts 62°
2026-05-07 18:07 45.33503 5.02710 35005 ft 500 kts 62°
2026-05-07 18:08 45.36787 5.11427 34997 ft 500 kts 62°
2026-05-07 18:08 45.40059 5.20160 34998 ft 500 kts 62°
2026-05-07 18:09 45.43320 5.28902 34994 ft 500 kts 62°
2026-05-07 18:09 45.46572 5.37656 35004 ft 500 kts 62°
2026-05-07 18:10 45.50505 5.45766 34991 ft 497 kts 45°
2026-05-07 18:10 45.55591 5.52406 34981 ft 496 kts 40°
2026-05-07 18:11 45.59904 5.57904 34975 ft 496 kts 40°
2026-05-07 18:11 45.65001 5.64455 34972 ft 496 kts 40°
2026-05-07 18:12 45.70133 5.71054 34968 ft 496 kts 40°
2026-05-07 18:12 45.75268 5.77661 34973 ft 496 kts 40°
2026-05-07 18:13 45.80406 5.84266 34969 ft 496 kts 40°
2026-05-07 18:13 45.85546 5.90876 34979 ft 496 kts 40°
2026-05-07 18:14 45.90676 5.97505 34963 ft 496 kts 40°
2026-05-07 18:14 45.95806 6.04146 34962 ft 496 kts 40°
2026-05-07 18:15 46.00937 6.10807 35064 ft 498 kts 40°
2026-05-07 18:15 46.03507 6.14146 35412 ft 497 kts 40°
2026-05-07 18:15 46.06070 6.17480 35717 ft 497 kts 40°
2026-05-07 18:15 46.08630 6.20817 36015 ft 497 kts 40°
2026-05-07 18:16 46.10344 6.23095 36195 ft 497 kts 41°
2026-05-07 18:16 46.12087 6.25480 36359 ft 497 kts 42°
2026-05-07 18:16 46.14558 6.28969 36598 ft 498 kts 43°
2026-05-07 18:16 46.17004 6.32508 36842 ft 498 kts 43°
2026-05-07 18:17 46.19442 6.36067 37003 ft 499 kts 43°
2026-05-07 18:17 46.24331 6.43154 36998 ft 498 kts 43°
2026-05-07 18:18 46.29253 6.50182 36995 ft 497 kts 43°
2026-05-07 18:18 46.34184 6.57210 37002 ft 498 kts 43°
2026-05-07 18:19 46.39099 6.64265 37015 ft 497 kts 43°
2026-05-07 18:19 46.43995 6.71345 37015 ft 497 kts 43°
2026-05-07 18:20 46.48894 6.78427 37021 ft 497 kts 43°
2026-05-07 18:20 46.53789 6.85517 37026 ft 497 kts 43°
2026-05-07 18:21 46.58375 6.93056 37014 ft 499 kts 49°
2026-05-07 18:21 46.62739 7.00915 37018 ft 500 kts 49°
2026-05-07 18:22 46.67106 7.08786 37025 ft 500 kts 49°
2026-05-07 18:22 46.71472 7.16671 37016 ft 500 kts 49°
2026-05-07 18:23 46.75832 7.24574 37025 ft 500 kts 49°
2026-05-07 18:23 46.80178 7.32503 37020 ft 500 kts 49°
2026-05-07 18:24 46.84521 7.40430 36998 ft 500 kts 49°
2026-05-07 18:24 46.88835 7.48320 36998 ft 500 kts 49°
2026-05-07 18:25 46.93168 7.56294 37054 ft 501 kts 50°
2026-05-07 18:25 46.97487 7.64280 37049 ft 500 kts 50°
2026-05-07 18:26 47.01805 7.72266 37039 ft 500 kts 50°
2026-05-07 18:26 47.06115 7.80254 37040 ft 499 kts 50°
2026-05-07 18:27 47.10414 7.88257 37040 ft 499 kts 50°
2026-05-07 18:27 47.14552 7.96436 37056 ft 500 kts 57°
2026-05-07 18:28 47.18236 8.05086 37053 ft 499 kts 56°
2026-05-07 18:28 47.21920 8.13720 37054 ft 498 kts 56°
2026-05-07 18:29 47.25590 8.22353 37047 ft 497 kts 57°
2026-05-07 18:29 47.29222 8.31016 37046 ft 498 kts 59°
2026-05-07 18:30 47.31815 8.40469 37044 ft 499 kts 71°
2026-05-07 18:30 47.33960 8.50203 37027 ft 499 kts 71°
2026-05-07 18:31 47.36108 8.59940 37025 ft 500 kts 71°
2026-05-07 18:31 47.38253 8.69696 37025 ft 500 kts 71°
2026-05-07 18:32 47.40384 8.79466 37023 ft 500 kts 71°
2026-05-07 18:32 47.42504 8.89258 37026 ft 501 kts 71°
2026-05-07 18:33 47.44623 8.99067 37031 ft 501 kts 71°
2026-05-07 18:33 47.46739 9.08881 37052 ft 501 kts 71°
2026-05-07 18:34 47.48846 9.18694 37054 ft 501 kts 72°
2026-05-07 18:34 47.49886 9.23585 36836 ft 496 kts 72°
2026-05-07 18:34 47.50900 9.28419 36733 ft 488 kts 72°
2026-05-07 18:34 47.51892 9.33242 36509 ft 490 kts 72°
2026-05-07 18:35 47.52869 9.38062 36227 ft 489 kts 72°
2026-05-07 18:35 47.53834 9.42887 35926 ft 489 kts 72°
2026-05-07 18:35 47.54795 9.47705 35629 ft 488 kts 72°
2026-05-07 18:35 47.55759 9.52528 35337 ft 488 kts 72°
2026-05-07 18:36 47.56724 9.57345 35047 ft 488 kts 72°
2026-05-07 18:36 47.57693 9.62165 34762 ft 488 kts 72°
2026-05-07 18:36 47.58661 9.66985 34481 ft 488 kts 72°
2026-05-07 18:36 47.59625 9.71812 34202 ft 489 kts 72°
2026-05-07 18:37 47.60586 9.76647 33925 ft 489 kts 72°
2026-05-07 18:37 47.61544 9.81476 33595 ft 488 kts 72°
2026-05-07 18:37 47.62499 9.86297 33274 ft 487 kts 72°
2026-05-07 18:37 47.63452 9.91116 32946 ft 487 kts 72°
2026-05-07 18:38 47.64400 9.95932 32632 ft 487 kts 72°
2026-05-07 18:38 47.65347 10.00750 32321 ft 486 kts 72°
2026-05-07 18:38 47.66292 10.05564 31931 ft 486 kts 72°
2026-05-07 18:38 47.67235 10.10374 31265 ft 485 kts 72°
2026-05-07 18:39 47.68170 10.15171 30582 ft 482 kts 72°
2026-05-07 18:39 47.69081 10.19863 29905 ft 480 kts 72°
2026-05-07 18:39 47.69952 10.24369 29170 ft 476 kts 72°
2026-05-07 18:39 47.70860 10.29068 28424 ft 471 kts 73°
2026-05-07 18:40 47.71758 10.33720 27680 ft 466 kts 73°
2026-05-07 18:40 47.72646 10.38316 26960 ft 461 kts 73°
2026-05-07 18:40 47.73491 10.42707 26279 ft 457 kts 73°
2026-05-07 18:40 47.74359 10.47230 25601 ft 453 kts 73°
2026-05-07 18:41 47.75217 10.51707 24941 ft 448 kts 73°
2026-05-07 18:41 47.76066 10.56143 24288 ft 444 kts 73°
2026-05-07 18:41 47.76904 10.60540 23652 ft 440 kts 73°
2026-05-07 18:41 47.77732 10.64903 22937 ft 436 kts 73°
2026-05-07 18:42 47.78548 10.69219 22257 ft 432 kts 73°
2026-05-07 18:42 47.79358 10.73506 21593 ft 429 kts 73°
2026-05-07 18:42 47.80163 10.77765 20942 ft 426 kts 73°
2026-05-07 18:42 47.80962 10.81993 20304 ft 424 kts 74°
2026-05-07 18:43 47.81766 10.86201 19692 ft 422 kts 72°
2026-05-07 18:43 47.82998 10.90126 19078 ft 418 kts 56°
2026-05-07 18:43 47.84783 10.93520 18485 ft 416 kts 49°
2026-05-07 18:43 47.86631 10.96830 17826 ft 415 kts 49°
2026-05-07 18:44 47.88482 11.00128 17157 ft 415 kts 49°
2026-05-07 18:44 47.90328 11.03424 16504 ft 414 kts 49°
2026-05-07 18:44 47.92159 11.06702 16131 ft 406 kts 49°
2026-05-07 18:44 47.93932 11.09888 16028 ft 394 kts 49°
2026-05-07 18:45 47.95677 11.13028 16054 ft 392 kts 49°
2026-05-07 18:45 47.97416 11.16160 16055 ft 392 kts 49°
2026-05-07 18:45 47.99155 11.19290 16054 ft 391 kts 49°
2026-05-07 18:45 48.00892 11.22420 16053 ft 392 kts 49°
2026-05-07 18:46 48.02629 11.25555 16055 ft 392 kts 49°
2026-05-07 18:46 48.04362 11.28691 16056 ft 392 kts 49°
2026-05-07 18:46 48.06096 11.31834 16056 ft 392 kts 49°
2026-05-07 18:46 48.07827 11.34977 16056 ft 392 kts 49°
2026-05-07 18:47 48.09557 11.38121 16062 ft 392 kts 49°
2026-05-07 18:47 48.11285 11.41271 16056 ft 391 kts 49°
2026-05-07 18:47 48.13012 11.44417 15975 ft 392 kts 49°
2026-05-07 18:47 48.14739 11.47560 15700 ft 390 kts 49°
2026-05-07 18:48 48.16456 11.50690 15452 ft 388 kts 49°
2026-05-07 18:48 48.18167 11.53815 15203 ft 387 kts 49°
2026-05-07 18:48 48.19873 11.56934 14956 ft 386 kts 49°
2026-05-07 18:48 48.21571 11.60042 14711 ft 385 kts 49°
2026-05-07 18:49 48.23125 11.63308 14465 ft 385 kts 58°
2026-05-07 18:49 48.24283 11.66925 14027 ft 385 kts 69°
2026-05-07 18:49 48.24996 11.70776 13461 ft 383 kts 79°
2026-05-07 18:49 48.25328 11.74724 12866 ft 380 kts 84°
2026-05-07 18:50 48.25620 11.78649 12298 ft 377 kts 84°
2026-05-07 18:50 48.25914 11.82544 11737 ft 374 kts 83°
2026-05-07 18:50 48.26211 11.86402 11216 ft 369 kts 83°
2026-05-07 18:50 48.26506 11.90189 10719 ft 362 kts 83°
2026-05-07 18:51 48.26794 11.93908 10239 ft 356 kts 83°
2026-05-07 18:51 48.27071 11.97561 9727 ft 348 kts 83°
2026-05-07 18:51 48.27337 12.01133 9200 ft 341 kts 83°
2026-05-07 18:51 48.27594 12.04605 8725 ft 328 kts 83°
2026-05-07 18:52 48.27842 12.07944 8265 ft 316 kts 83°
2026-05-07 18:52 48.28078 12.11124 7795 ft 306 kts 83°
2026-05-07 18:52 48.28308 12.14257 7347 ft 300 kts 83°
2026-05-07 18:52 48.28559 12.17333 6894 ft 294 kts 78°
2026-05-07 18:53 48.29364 12.20079 6487 ft 284 kts 50°
2026-05-07 18:53 48.30855 12.21904 6109 ft 275 kts 22°
2026-05-07 18:53 48.32687 12.22480 5724 ft 269 kts 358°
2026-05-07 18:53 48.34531 12.22208 5341 ft 265 kts 340°
2026-05-07 18:54 48.36067 12.20777 4964 ft 260 kts 311°
2026-05-07 18:54 48.36962 12.18454 4573 ft 258 kts 286°
2026-05-07 18:54 48.37151 12.16709 4312 ft 255 kts 270°
2026-05-07 18:54 48.36992 12.14093 4070 ft 246 kts 263°
2026-05-07 18:55 48.36809 12.11617 4009 ft 230 kts 264°
2026-05-07 18:55 48.36641 12.09321 4013 ft 213 kts 264°
2026-05-07 18:55 48.36483 12.07173 4013 ft 200 kts 264°
2026-05-07 18:55 48.36333 12.05145 4013 ft 192 kts 264°
2026-05-07 18:56 48.36187 12.03173 4077 ft 188 kts 264°
2026-05-07 18:56 48.36042 12.01217 4039 ft 187 kts 264°
2026-05-07 18:56 48.35898 11.99286 3940 ft 182 kts 264°
2026-05-07 18:56 48.35759 11.97421 3746 ft 177 kts 264°
2026-05-07 18:57 48.35622 11.95594 3525 ft 174 kts 264°
2026-05-07 18:57 48.35492 11.93863 3311 ft 157 kts 265°
2026-05-07 18:57 48.35375 11.92308 3103 ft 144 kts 265°
2026-05-07 18:57 48.35265 11.90850 2910 ft 138 kts 265°
2026-05-07 18:58 48.35158 11.89423 2733 ft 137 kts 265°
2026-05-07 18:58 48.35056 11.88009 2551 ft 136 kts 266°
2026-05-07 18:58 48.34948 11.86596 2358 ft 136 kts 265°
2026-05-07 18:58 48.34835 11.85192 2184 ft 135 kts 265°
2026-05-07 18:59 48.34724 11.83787 1979 ft 136 kts 265°
2026-05-07 18:59 48.34625 11.82384 1803 ft 136 kts 265°
2026-05-07 18:59 48.34520 11.80980 1615 ft 135 kts 265°
2026-05-07 18:59 48.34415 11.79595 1488 ft 126 kts 264°
2026-05-07 19:00 48.34330 11.78493 1485 ft 82 kts 263°
2026-05-07 19:00 48.34318 11.78016 1485 ft 26 kts 284°
2026-05-07 19:00 48.34371 11.77802 1483 ft 20 kts 293°
2026-05-07 19:00 48.34416 11.77647 1478 ft 14 kts 293°
2026-05-07 19:01 48.34454 11.77513 1475 ft 14 kts 295°
2026-05-07 19:01 48.34534 11.77436 1480 ft 15 kts 353°
2026-05-07 19:01 48.34628 11.77465 1483 ft 15 kts 66°
2026-05-07 19:01 48.34643 11.77631 1485 ft 17 kts 83°
2026-05-07 19:02 48.34658 11.77826 1485 ft 20 kts 83°
2026-05-07 19:02 48.34675 11.78053 1485 ft 24 kts 83°
2026-05-07 19:02 48.34697 11.78326 1483 ft 28 kts 83°
2026-05-07 19:02 48.34720 11.78631 1485 ft 30 kts 83°
2026-05-07 19:03 48.34744 11.78937 1485 ft 29 kts 83°
2026-05-07 19:03 48.34767 11.79242 1485 ft 29 kts 83°
2026-05-07 19:03 48.34788 11.79508 1485 ft 16 kts 78°
2026-05-07 19:03 48.34851 11.79555 1485 ft 10 kts 340°
2026-05-07 19:04 48.34917 11.79544 1480 ft 8 kts 356°
2026-05-07 19:04 48.34973 11.79537 1485 ft 9 kts 354°
2026-05-07 19:04 48.35040 11.79527 1476 ft 11 kts 354°
2026-05-07 19:04 48.35067 11.79486 1485 ft 6 kts 268°
2026-05-07 19:05 48.35061 11.79412 1485 ft 8 kts 263°
2026-05-07 19:05 48.35057 11.79366 1485 ft 0 kts 263°
2026-05-07 19:05 48.35057 11.79365 1485 ft 0 kts 263°